Location: Altmatt
(47.1333°N, 8.7000°E)
Time: 18:10:07
(UTC+00:00)

Cosmos 1315 Rocket - Pass Details

Date: 13 July 2020
Orbit: 530 x 568 km, 81.2° (Epoch: 12 August)

Event Time Altitude Azimuth Distance (km) Brightness Sun altitude
Rises 20:08:19 0° 347° (NNW) 2,770 7.5 -7.5°
Reaches altitude 10° 20:10:30 10° 347° (NNW) 1,873 6.5 -7.7°
Maximum altitude 20:14:38 80° 261° (W) 583 3.0 -8.2°
Drops below altitude 10° 20:18:45 10° 174° (S) 1,863 5.1 -8.7°
Enters shadow 20:19:39 - 174° (S) 2,226 5.4 -8.8°
